カタログに戻る

STARLINK-37305

運用中通信VLEO
NORAD 68713·PAYLOAD·🇺🇸 United States

打ち上げ Apr 14, 2026 から Cape Canaveral Space Force Station

Loading…

次のパス (今後24時間)

TLE

最新Source: CelesTrak SupGP

元期: Sep 14, 2026, 21:04 UTC

1 68713C 26081Q   26257.87826389  .00046844  00000+0  13839-2 0  2573
2 68713  53.1583 232.0140 0001375  93.9617 319.1664 15.34370269    16

AllMySatでSTARLINK-37305をリアルタイム追跡

Download on the App Store